Вернуться в каталог

COSMOS 1717

АктивенВоенныеLEO
NORAD 16450·PAYLOAD·🇷🇺 Russia

Запущен Jan 9, 1986 с Plesetsk Cosmodrome

Loading…

Ближайшие Пролёты (ближайшие 24 часа)

TLE

СвежийSource: Space-Track

Эпоха: Sep 14, 2026, 10:23 UTC

1 16450U 86002B   26257.43323667 -.00000034  00000-0 -13220-3 0  9998
2 16450  73.9871  65.8483 0024331 214.9487 170.2683 12.42994046845886

Отслеживайте COSMOS 1717 в реальном времени с AllMySat

Download on the App Store